Location: ???????
(60.4260°N, 46.9069°E)
Time: 05:48:50
(UTC+00:00)

Cosmos 1833 - Pass Details

Date: 30 March 2020
Orbit: 839 x 860 km, 70.9° (Epoch: 05 June)

Event Time Altitude Azimuth Distance (km) Brightness Sun altitude
Exits shadow 00:18:14 19° 207° (SSW) 1,949 5.6 -14.8°
Maximum altitude 00:22:29 75° 126° (SE) 896 4.4 -14.4°
Drops below altitude 10° 00:28:14 10° 42° (NE) 2,502 8.0 -13.8°
Sets 00:30:42 0° 41° (NE) 3,439 9.0 -13.6°
